DW4415 Weather Reports


time (UTC)temp
C
wind
direction
speed
KPH
gust
KPH
rain 1hr
cm
rain 24hr
cm
rain mn
cm
humidity
%
barometer
mb
20260507023505 17 189 1.6 8.0 0.00 0.00 0.00 76 1015.7
20260507023005 17 203 4.8 9.7 0.00 0.00 0.00 75 1015.6
20260507022504 17 174 1.6 9.7 0.00 0.00 0.00 75 1015.5
20260507022004 17 176 4.8 12.9 0.00 0.00 0.00 74 1015.6
20260507021504 17 212 4.8 11.3 0.00 0.00 0.00 73 1015.6
20260507021005 17 147 1.6 9.7 0.00 0.00 0.00 73 1015.6
20260507020504 17 176 4.8 11.3 0.00 0.00 0.00 73 1015.6
20260507020005 18 208 6.4 11.3 0.00 0.00 0.00 70 1015.5
20260507015505 18 195 4.8 11.3 0.00 0.00 0.00 69 1015.4
20260507015005 18 153 3.2 11.3 0.00 0.00 0.00 68 1015.5
20260507014505 18 210 9.7 14.5 0.00 0.00 0.00 67 1015.4
20260507014005 18 198 3.2 12.9 0.00 0.00 0.00 67 1015.4
20260507013504 18 210 6.4 14.5 0.00 0.00 0.00 66 1015.4
20260507013005 18 240 4.8 19.3 0.00 0.00 0.00 66 1015.4
20260507012005 18 207 8.0 14.5 0.00 0.00 0.00 66 1015.4
20260507011504 18 191 8.0 12.9 0.00 0.00 0.00 65 1015.4
20260507010505 18 213 11.3 19.3 0.00 0.00 0.00 66 1015.5
20260507010005 18 203 4.8 16.1 0.00 0.00 0.00 66 1015.5
20260507005505 18 209 9.7 19.3 0.00 0.00 0.00 64 1015.6
20260507005004 19 255 6.4 19.3 0.00 0.00 0.00 64 1015.6
20260507003505 18 230 8.0 19.3 0.00 0.00 0.00 63 1015.6
20260507003005 19 198 9.7 19.3 0.00 0.00 0.00 62 1015.6
20260507002004 19 228 8.0 24.1 0.00 0.00 0.00 62 1015.6
20260507001505 18 245 14.5 24.1 0.00 0.00 0.00 61 1015.6
20260507001005 19 244 11.3 20.9 0.00 0.00 0.00 61 1015.6
20260506235504 19 207 11.3 25.7 0.00 0.00 0.00 61 1015.6
20260506235005 20 226 9.7 22.5 0.00 0.00 0.00 61 1015.6
20260506234504 19 212 9.7 22.5 0.00 0.00 0.00 62 1015.5
20260506234004 19 205 11.3 20.9 0.00 0.00 0.00 62 1015.5
20260506233505 19 209 12.9 24.1 0.00 0.00 0.00 60 1015.5
20260506233005 20 248 12.9 22.5 0.00 0.00 0.00 60 1015.6
20260506232504 20 235 14.5 22.5 0.00 0.00 0.00 61 1015.7
20260506232005 20 234 14.5 22.5 0.00 0.00 0.00 61 1015.7
20260506231504 20 214 14.5 24.1 0.00 0.00 0.00 60 1015.8
20260506231004 19 217 12.9 20.9 0.00 0.00 0.00 61 1015.7
20260506230505 20 226 14.5 25.7 0.00 0.00 0.00 60 1015.8
20260506225506 20 213 11.3 22.5 0.00 0.00 0.00 61 1015.9
20260506225004 20 229 14.5 22.5 0.00 0.00 0.00 61 1016.0
20260506224504 20 201 14.5 22.5 0.00 0.00 0.00 61 1016.0
20260506224004 20 232 16.1 24.1 0.00 0.00 0.00 61 1016.0
20260506223504 20 215 11.3 20.9 0.00 0.00 0.00 60 1016.1
20260506222504 20 229 14.5 22.5 0.00 0.00 0.00 61 1016.2
20260506222005 20 228 16.1 25.7 0.00 0.00 0.00 62 1016.3
20260506221505 20 223 12.9 20.9 0.00 0.00 0.00 61 1016.4
20260506221005 20 216 12.9 24.1 0.00 0.00 0.00 63 1016.4
20260506220506 20 214 11.3 25.7 0.00 0.00 0.00 62 1016.6
20260506220005 20 223 9.7 20.9 0.00 0.00 0.00 62 1016.7
20260506215504 20 206 12.9 29.0 0.00 0.00 0.00 62 1016.7
20260506215006 20 198 9.7 24.1 0.00 0.00 0.00 61 1016.6
20260506214505 20 213 11.3 20.9 0.00 0.00 0.00 61 1016.7
20260506213004 21 242 11.3 22.5 0.00 0.00 0.00 61 1016.9
20260506212504 21 218 14.5 24.1 0.00 0.00 0.00 61 1016.9
20260506212004 21 244 11.3 22.5 0.00 0.00 0.00 61 1016.9
20260506210504 20 198 14.5 24.1 0.00 0.00 0.00 61 1017.0
20260506205505 20 204 8.0 19.3 0.00 0.00 0.00 60 1017.1
20260506205004 20 221 9.7 24.1 0.00 0.00 0.00 61 1017.1
20260506204504 20 226 9.7 24.1 0.00 0.00 0.00 61 1017.1
20260506204004 20 206 12.9 25.7 0.00 0.00 0.00 62 1017.2
20260506203504 20 231 11.3 19.3 0.00 0.00 0.00 61 1017.2
20260506203004 20 191 11.3 19.3 0.00 0.00 0.00 63 1017.3
20260506202505 20 165 8.0 19.3 0.00 0.00 0.00 65 1017.4
20260506202004 20 241 14.5 24.1 0.00 0.00 0.00 63 1017.4
20260506201504 20 230 9.7 16.1 0.00 0.00 0.00 64 1017.4
20260506201004 20 211 11.3 19.3 0.00 0.00 0.00 65 1017.4
20260506200506 19 247 11.3 22.5 0.00 0.00 0.00 65 1017.4
20260506195504 20 191 8.0 19.3 0.00 0.00 0.00 66 1017.5
20260506194004 20 205 11.3 20.9 0.00 0.00 0.00 65 1017.6
20260506193505 20 226 12.9 22.5 0.00 0.00 0.00 65 1017.6
20260506193004 20 212 11.3 19.3 0.00 0.00 0.00 65 1017.7
20260506192505 19 253 11.3 19.3 0.00 0.00 0.00 66 1017.7
20260506192004 19 218 11.3 19.3 0.00 0.00 0.00 65 1017.7
20260506191504 19 205 8.0 16.1 0.00 0.00 0.00 67 1017.8
20260506191004 20 190 9.7 20.9 0.00 0.00 0.00 65 1017.8
20260506190504 19 203 8.0 19.3 0.00 0.00 0.00 66 1017.9
20260506190005 19 232 11.3 24.1 0.00 0.00 0.00 66 1017.9
20260506185504 19 227 14.5 24.1 0.00 0.00 0.00 66 1017.9
20260506185004 19 227 6.4 20.9 0.00 0.00 0.00 67 1017.8
20260506184504 19 208 8.0 19.3 0.00 0.00 0.00 66 1017.9
20260506184005 19 203 9.7 20.9 0.00 0.00 0.00 66 1018.0
20260506183005 18 233 12.9 22.5 0.00 0.00 0.00 66 1018.0
20260506182504 19 209 9.7 20.9 0.00 0.00 0.00 66 1018.0
20260506181504 19 235 9.7 19.3 0.00 0.00 0.00 65 1018.0
20260506181004 19 205 9.7 19.3 0.00 0.00 0.00 64 1018.1
20260506180504 19 241 11.3 20.9 0.00 0.00 0.00 62 1018.1
20260506180005 18 198 8.0 14.5 0.00 0.00 0.00 62 1018.1
20260506175504 18 218 8.0 16.1 0.00 0.00 0.00 63 1018.0
20260506175005 18 280 4.8 14.5 0.00 0.00 0.00 63 1018.0
20260506173504 18 178 6.4 14.5 0.00 0.00 0.00 62 1018.1
20260506172506 18 208 4.8 14.5 0.00 0.00 0.00 64 1018.1
20260506172004 18 227 9.7 16.1 0.00 0.00 0.00 64 1018.1
20260506171005 18 211 3.2 11.3 0.00 0.00 0.00 67 1018.0
20260506170504 17 209 6.4 14.5 0.00 0.00 0.00 67 1018.0
20260506165505 17 241 4.8 16.1 0.00 0.00 0.00 69 1018.1
20260506164505 17 237 8.0 16.1 0.00 0.00 0.00 68 1018.1
20260506164004 17 228 9.7 14.5 0.00 0.00 0.00 69 1018.1
20260506163505 17 211 8.0 16.1 0.00 0.00 0.00 69 1018.1
20260506163005 16 244 9.7 14.5 0.00 0.00 0.00 70 1018.2
20260506162504 17 213 8.0 16.1 0.00 0.00 0.00 69 1018.2
20260506162005 17 215 8.0 12.9 0.00 0.00 0.00 69 1018.2
20260506161504 17 237 6.4 11.3 0.00 0.00 0.00 70 1018.1
20260506161005 16 224 3.2 11.3 0.00 0.00 0.00 71 1018.1
20260506160505 16 175 3.2 8.0 0.00 0.00 0.00 71 1018.1
20260506160004 16 171 3.2 8.0 0.00 0.00 0.00 71 1018.0
20260506155504 16 183 1.6 4.8 0.00 0.00 0.00 71 1018.1
20260506155005 16 211 1.6 4.8 0.00 0.00 0.00 70 1018.1
20260506154504 16 97 1.6 3.2 0.00 0.00 0.00 73 1018.0
20260506154004 15 123 1.6 4.8 0.00 0.00 0.00 71 1018.0
20260506153504 16 103 3.2 4.8 0.00 0.00 0.00 71 1018.0
20260506153006 16 90 3.2 4.8 0.00 0.00 0.00 72 1018.0
20260506152004 15 106 3.2 4.8 0.00 0.00 0.00 73 1018.1
20260506151504 16 93 3.2 4.8 0.00 0.00 0.00 72 1018.1
20260506151005 15 82 3.2 4.8 0.00 0.00 0.00 73 1018.1
20260506150004 15 103 3.2 4.8 0.00 0.00 0.00 75 1018.1
20260506145505 14 97 1.6 4.8 0.00 0.00 0.00 76 1018.0
20260506145004 14 95 1.6 4.8 0.00 0.00 0.00 78 1018.0
20260506144505 13 77 3.2 9.7 0.00 0.00 0.00 79 1018.0
20260506144004 13 78 1.6 4.8 0.00 0.00 0.00 80 1017.9
20260506143005 13 64 3.2 3.2 0.00 0.00 0.00 83 1017.9
20260506142504 12 76 1.6 4.8 0.00 0.00 0.00 83 1017.8
20260506142004 12 57 0.0 3.2 0.00 0.00 0.00 84 1017.8
20260506141504 12 57 0.0 0.0 0.00 0.00 0.00 83 1017.8
20260506140505 12 57 0.0 1.6 0.00 0.00 0.00 84 1017.7
20260506140005 12 57 1.6 3.2 0.00 0.00 0.00 84 1017.7
20260506135504 11 57 3.2 4.8 0.00 0.00 0.00 85 1017.7
20260506135004 11 57 3.2 4.8 0.00 0.00 0.00 85 1017.7
20260506134505 11 61 3.2 4.8 0.00 0.00 0.00 85 1017.7
20260506134005 11 31 0.0 3.2 0.00 0.00 0.00 85 1017.7
20260506133004 10 31 1.6 3.2 0.00 0.00 0.00 85 1017.7
20260506132505 10 31 0.0 3.2 0.00 0.00 0.00 85 1017.7
20260506132005 10 34 1.6 3.2 0.00 0.00 0.00 85 1017.7
20260506131504 11 69 0.0 0.0 0.00 0.00 0.00 84 1017.5
20260506131004 11 69 0.0 1.6 0.00 0.00 0.00 83 1017.5
20260506130504 11 69 0.0 0.0 0.00 0.00 0.00 83 1017.5
20260506130005 11 69 1.6 3.2 0.00 0.00 0.00 83 1017.4
20260506125504 11 69 0.0 4.8 0.00 0.00 0.00 82 1017.4
20260506125004 11 69 3.2 4.8 0.00 0.00 0.00 82 1017.2
20260506124005 11 69 3.2 4.8 0.00 0.00 0.00 81 1017.2
20260506123005 12 73 1.6 4.8 0.00 0.00 0.00 81 1017.1
20260506122504 12 60 3.2 4.8 0.00 0.00 0.00 81 1017.0
20260506122004 12 62 1.6 4.8 0.00 0.00 0.00 80 1016.9
20260506121504 12 55 4.8 8.0 0.00 0.00 0.00 81 1016.8
20260506121006 12 56 4.8 9.7 0.00 0.00 0.00 81 1016.8
20260506120504 12 60 3.2 8.0 0.00 0.00 0.00 81 1016.8
20260506120006 12 49 4.8 8.0 0.00 0.00 0.00 81 1016.8
20260506115004 12 75 4.8 9.7 0.00 0.00 0.00 82 1016.8
20260506114005 12 69 4.8 9.7 0.00 0.00 0.00 82 1016.8
20260506113506 12 62 3.2 4.8 0.00 0.00 0.00 83 1016.8
20260506113004 12 58 4.8 8.0 0.00 0.00 0.00 83 1016.8
20260506112504 12 64 3.2 4.8 0.00 0.00 0.00 83 1016.8
20260506112004 12 54 3.2 4.8 0.00 0.00 0.00 84 1016.8
20260506111504 12 54 3.2 4.8 0.00 0.00 0.00 84 1016.9
20260506111005 12 38 4.8 8.0 0.00 0.00 0.00 84 1016.8
20260506110504 12 42 3.2 8.0 0.00 0.00 0.00 84 1016.8
20260506105504 12 30 4.8 11.3 0.00 0.00 0.00 84 1016.8
20260506105004 12 44 4.8 4.8 0.00 0.00 0.00 84 1016.8
20260506104504 12 63 3.2 4.8 0.00 0.00 0.00 84 1016.7
20260506104004 12 66 3.2 4.8 0.00 0.00 0.00 84 1016.7
20260506103504 12 59 4.8 11.3 0.00 0.00 0.00 84 1016.6
20260506103004 12 72 4.8 9.7 0.00 0.00 0.00 84 1016.6
20260506102504 12 71 4.8 11.3 0.00 0.00 0.00 84 1016.7
20260506101504 11 61 4.8 8.0 0.00 0.00 0.00 85 1016.8
20260506101004 11 74 8.0 11.3 0.00 0.00 0.00 85 1016.8
20260506100505 11 62 8.0 11.3 0.00 0.00 0.00 85 1016.7
20260506100004 11 70 4.8 11.3 0.00 0.00 0.00 85 1016.7
20260506095505 11 69 3.2 4.8 0.00 0.00 0.00 85 1016.8
20260506095005 11 71 1.6 3.2 0.00 0.00 0.00 85 1016.9
20260506094504 11 71 0.0 0.0 0.00 0.00 0.00 85 1017.0
20260506094004 11 71 0.0 3.2 0.00 0.00 0.00 85 1017.0
20260506092504 12 65 0.0 3.2 0.00 0.00 0.00 85 1017.0
20260506092005 12 65 0.0 3.2 0.00 0.00 0.00 85 1017.0
20260506090505 12 65 3.2 4.8 0.00 0.00 0.00 86 1017.2
20260506090006 12 72 3.2 4.8 0.00 0.00 0.00 85 1017.2
20260506085504 12 69 1.6 3.2 0.00 0.00 0.00 85 1017.1
20260506085004 12 69 0.0 1.6 0.00 0.00 0.00 85 1017.1
20260506084504 12 69 0.0 1.6 0.00 0.00 0.00 85 1017.2
20260506084004 12 69 0.0 3.2 0.00 0.00 0.00 85 1017.2
20260506083004 12 55 3.2 8.0 0.00 0.00 0.00 86 1017.3
20260506082004 12 40 1.6 3.2 0.00 0.00 0.00 86 1017.3
20260506081004 12 59 3.2 4.8 0.00 0.00 0.00 86 1017.3
20260506080504 12 36 3.2 4.8 0.00 0.00 0.00 86 1017.4
20260506073504 12 62 3.2 4.8 0.00 0.00 0.00 86 1017.3
20260506073004 12 63 3.2 4.8 0.00 0.00 0.00 86 1017.2
20260506072504 12 66 3.2 4.8 0.00 0.00 0.00 86 1017.3
20260506072005 12 66 0.0 3.2 0.00 0.00 0.00 86 1017.3
20260506071005 12 69 1.6 4.8 0.00 0.00 0.00 86 1017.1
20260506070504 12 69 3.2 4.8 0.00 0.00 0.00 86 1017.0
20260506062004 12 60 3.2 4.8 0.00 0.00 0.00 86 1016.6
20260506061505 12 66 4.8 9.7 0.00 0.00 0.00 86 1016.5
20260506061004 12 70 1.6 4.8 0.00 0.00 0.00 86 1016.4
20260506060504 12 69 4.8 4.8 0.00 0.00 0.00 86 1016.4
20260506051004 12 115 0.0 1.6 0.00 0.00 0.00 85 1016.1
20260506050505 12 115 1.6 3.2 0.00 0.00 0.00 85 1016.1
20260506045004 13 115 0.0 0.0 0.00 0.00 0.00 82 1015.8
20260506044504 13 115 0.0 0.0 0.00 0.00 0.00 81 1015.8
20260506044004 13 115 0.0 0.0 0.00 0.00 0.00 81 1015.8
20260506043504 13 115 0.0 3.2 0.00 0.00 0.00 81 1015.7
20260506043004 14 143 0.0 3.2 0.00 0.00 0.00 81 1015.7
20260506042504 14 143 0.0 3.2 0.00 0.00 0.00 81 1015.7
20260506042004 14 143 0.0 1.6 0.00 0.00 0.00 81 1015.7
20260506041504 13 143 0.0 1.6 0.00 0.00 0.00 82 1015.5
20260506041004 13 143 0.0 4.8 0.00 0.00 0.00 83 1015.4
20260506040504 13 136 3.2 4.8 0.00 0.00 0.00 82 1015.4
20260506035504 14 133 1.6 8.0 0.00 0.00 0.00 82 1015.4
20260506035004 14 113 1.6 8.0 0.00 0.00 0.00 82 1015.2
20260506034504 14 125 3.2 8.0 0.00 0.00 0.00 82 1015.1
20260506034006 14 162 1.6 4.8 0.00 0.00 0.00 81 1015.0
20260506033005 14 212 1.6 4.8 0.00 0.00 0.00 80 1015.0
20260506032504 14 118 0.0 4.8 0.00 0.00 0.00 80 1014.9
20260506032004 14 138 4.8 9.7 0.00 0.00 0.00 80 1014.8
20260506031505 14 128 1.6 4.8 0.00 0.00 0.00 80 1014.7
20260506031003 14 205 1.6 4.8 0.00 0.00 0.00 79 1014.7
20260506030004 15 167 1.6 4.8 0.00 0.00 0.00 78 1014.5
20260506025504 15 130 1.6 8.0 0.00 0.00 0.00 77 1014.4
20260506025004 15 171 0.0 3.2 0.00 0.00 0.00 77 1014.4
20260506024504 15 178 3.2 8.0 0.00 0.00 0.00 76 1014.2
20260506024004 15 125 1.6 14.5 0.00 0.00 0.00 76 1014.1